Tracking 29777 objects as of 5-Oct-2024
HD Live streaming from Space Station
objects crossing your sky now

SJ-23

Track SJ-23 now!


NORAD ID: 55131
Int'l Code: 2023-002A
Perigee: 35,732.1 km
Apogee: 35,740.0 km
Inclination: 2.1 °
Period: 1,433.2 minutes
Semi major axis: 42107 km
RCS: Unknown
Launch date: January 8, 2023
Source: People's Republic of China (PRC)
Launch site: Wenchang Satellite Launch Center (WSC)
Your satellite tracking list
Your tracking list is empty




NASA's NSSDC Master Catalog

Two Line Element Set (TLE):
1 55131U 23002A   24278.86619263 -.00000181  00000-0  00000-0 0  9997
2 55131   2.1114  86.2677 0000931 153.1629 167.4553  1.00477943  6284
Source of the keplerian elements: AFSPC